Volver al catálogo

FENGYUN 1C DEB

LostPO
NORAD 38136·DEBRIS·🇨🇳 China

Lanzado May 10, 1999 desde Taiyuan Satellite Launch Center

Loading…

Próximos Pases (próximas 24 horas)

TLE

ObsoletoSource: Space-Track

Época: Sep 24, 2024, 11:07 UTC

1 38136U 99025EQH 24268.46372454  .00004548  00000-0  33069-2 0  9997
2 38136  98.6003 146.1426 0142873 248.0215 110.5713 13.91968589 25947

Sigue FENGYUN 1C DEB en tiempo real con AllMySat

Download on the App Store